Ozona, TX

1:12 PM CDT on July 23, 2017 (GMT -0500)
Ozona Municipal

Weather History for KOZA - November, 2011

Change the Weather History Date:

Friday, November 18, 2011

  Actual Average Record
Temperature  
Mean Temperature 53 °F -  
Max Temperature 63 °F 67 °F 69 °F (2013)
Min Temperature 43 °F 41 °F 23 °F (2014)
Degree Days  
Heating Degree Days 12    
Growing Degree Days 3 (Base 50)    
Moisture  
Dew Point 46 °F    
Average Humidity 79    
Maximum Humidity 90    
Minimum Humidity 64    
Precipitation  
Precipitation 0.00 in - - ()
Sea Level Pressure  
Sea Level Pressure 30.08 in    
Wind  
Wind Speed 13 mph (South)    
Max Wind Speed 26 mph    
Max Gust Speed 34 mph    
Visibility 10 miles    
Events      
Averages and records for this station are not official NWS values.
T = Trace of Precipitation, MM = Missing Value Source: NWS Daily Summary

Daily Weather History Graph

Daily Weather History Graph

Search for Another Location

Airport or City:

Trip Planner

Search our weather history database for the weather conditions in past years. The results will help you decide how hot, cold, wet, or windy it might be!

Date:

Astronomy

Nov. 18, 2011 Rise Set
Actual Time 7:13 AM CST 5:46 PM CST
Civil Twilight 6:47 AM CST 6:11 PM CST
Nautical Twilight 6:18 AM CST 6:40 PM CST
Astronomical Twilight 5:49 AM CST 7:09 PM CST
Moon 12:00 AM CST (11/18) 1:06 PM CST (11/18)
Length of Visible Light 11h 23m
Length of Day
10h 32m
Waning Gibbous, 49% of the Moon is Illuminated
Nov 18
Waning Gibbous
Nov 25
New
Dec 2
First Quarter
Dec 10
Full
Dec 17
Last Quarter

Hourly Weather History & Observations

Time (CST) Temp. Windchill Dew Point Humidity Pressure Visibility Wind Dir Wind Speed Gust Speed Precip Events Conditions
12:15 AM 47.7 °F - 41.9 °F 80% 30.20 in 10.0 mi South 9.2 mph 16.1 mph N/A   Clear
12:35 AM 47.5 °F - 41.9 °F 81% 30.19 in 10.0 mi South 10.4 mph 16.1 mph N/A   Clear
1:15 AM 47.3 °F - 41.7 °F 81% 30.17 in 10.0 mi South 12.7 mph 23.0 mph N/A   Clear
1:35 AM 47.1 °F - 41.9 °F 82% 30.16 in 10.0 mi South 11.5 mph 17.3 mph N/A   Clear
1:55 AM 46.4 °F 41.5 °F 41.5 °F 83% 30.16 in 10.0 mi South 10.4 mph - N/A   Clear
2:15 AM 46.4 °F 42.4 °F 41.4 °F 83% 30.17 in 10.0 mi South 8.1 mph - N/A   Clear
2:35 AM 45.9 °F 40.8 °F 41.2 °F 84% 30.16 in 10.0 mi South 10.4 mph - N/A   Clear
2:55 AM 45.7 °F 42.0 °F 41.4 °F 85% 30.15 in 10.0 mi South 6.9 mph - N/A   Clear
3:15 AM 45.1 °F 40.8 °F 41.2 °F 86% 30.15 in 10.0 mi South 8.1 mph - N/A   Clear
3:35 AM 45.0 °F 40.1 °F 41.2 °F 87% 30.14 in 10.0 mi South 9.2 mph - N/A   Clear
4:15 AM 43.9 °F 40.5 °F 41.0 °F 90% 30.13 in 10.0 mi South 5.8 mph - N/A   Clear
4:35 AM 44.2 °F 39.7 °F 41.5 °F 90% 30.12 in 10.0 mi South 8.1 mph - N/A   Clear
4:55 AM 45.1 °F 39.5 °F 41.7 °F 88% 30.12 in 10.0 mi South 11.5 mph 16.1 mph N/A   Clear
5:35 AM 45.7 °F 39.8 °F 41.9 °F 87% 30.11 in 10.0 mi South 12.7 mph - N/A   Clear
5:55 AM 45.7 °F 40.6 °F 42.1 °F 87% 30.12 in 10.0 mi South 10.4 mph 16.1 mph N/A   Clear
6:15 AM 45.9 °F 40.4 °F 42.4 °F 88% 30.12 in 10.0 mi South 11.5 mph - N/A   Mostly Cloudy
6:35 AM 46.8 °F - 43.0 °F 87% 30.12 in 10.0 mi South 8.1 mph - N/A   Overcast
6:55 AM 47.7 °F - 43.2 °F 84% 30.12 in 10.0 mi South 11.5 mph 17.3 mph N/A   Overcast
7:15 AM 48.6 °F - 43.3 °F 82% 30.12 in 10.0 mi South 11.5 mph 21.9 mph N/A   Overcast
7:35 AM 49.1 °F - 43.9 °F 82% 30.12 in 10.0 mi South 13.8 mph 18.4 mph N/A   Overcast
7:55 AM 49.8 °F - 44.4 °F 82% 30.12 in 10.0 mi South 16.1 mph 20.7 mph N/A   Overcast
8:15 AM 50.5 °F - 43.7 °F 77% 30.12 in 10.0 mi South 15.0 mph 21.9 mph N/A   Overcast
8:35 AM 51.4 °F - 43.3 °F 74% 30.12 in 10.0 mi South 15.0 mph 21.9 mph N/A   Overcast
8:55 AM 52.0 °F - 44.1 °F 74% 30.12 in 10.0 mi South 17.3 mph 23.0 mph N/A   Overcast
9:15 AM 52.7 °F - 45.1 °F 75% 30.12 in 10.0 mi South 16.1 mph 26.5 mph N/A   Overcast
9:35 AM 53.6 °F - 46.2 °F 76% 30.12 in 10.0 mi South 19.6 mph 27.6 mph N/A   Overcast
9:55 AM 54.3 °F - 47.1 °F 77% 30.13 in 10.0 mi South 23.0 mph 29.9 mph N/A   Overcast
10:15 AM 54.7 °F - 47.5 °F 77% 30.12 in 10.0 mi South 20.7 mph 28.8 mph N/A   Overcast
11:15 AM 57.0 °F - 49.1 °F 75% 30.11 in 10.0 mi South 21.9 mph 29.9 mph N/A   Overcast
11:35 AM 56.7 °F - 49.5 °F 77% 30.10 in 10.0 mi SSW 26.5 mph 32.2 mph N/A   Overcast
11:55 AM 56.7 °F - 49.5 °F 77% 30.09 in 10.0 mi South 19.6 mph 31.1 mph N/A   Overcast
12:15 PM 57.0 °F - 49.8 °F 77% 30.07 in 10.0 mi South 24.2 mph 34.5 mph N/A   Overcast
12:35 PM 56.7 °F - 50.2 °F 79% 30.06 in 10.0 mi South 23.0 mph 32.2 mph N/A   Overcast
12:55 PM 56.5 °F - 50.4 °F 80% 30.05 in 10.0 mi South 20.7 mph 25.3 mph N/A   Overcast
1:15 PM 56.3 °F - 50.5 °F 81% 30.04 in 10.0 mi South 18.4 mph 27.6 mph N/A   Overcast
1:35 PM 56.5 °F - 50.5 °F 80% 30.03 in 10.0 mi South 20.7 mph 26.5 mph N/A   Overcast
1:55 PM 56.7 °F - 50.7 °F 80% 30.02 in 10.0 mi South 17.3 mph 25.3 mph N/A   Overcast
2:15 PM 56.8 °F - 50.7 °F 80% 30.01 in 10.0 mi South 16.1 mph 23.0 mph N/A   Overcast
2:35 PM 57.7 °F - 50.5 °F 77% 30.00 in 10.0 mi South 13.8 mph 25.3 mph N/A   Overcast
2:55 PM 59.0 °F - 50.5 °F 73% 29.99 in 10.0 mi South 15.0 mph 21.9 mph N/A   Overcast
3:15 PM 59.9 °F - 50.5 °F 71% 29.97 in 10.0 mi South 20.7 mph 27.6 mph N/A   Mostly Cloudy
3:35 PM 61.3 °F - 50.9 °F 69% 29.97 in 10.0 mi South 15.0 mph - N/A   Clear
3:55 PM 62.4 °F - 50.9 °F 66% 29.96 in 10.0 mi South 16.1 mph 19.6 mph N/A   Clear
4:15 PM 63.3 °F - 50.9 °F 64% 29.95 in 10.0 mi South 13.8 mph 21.9 mph N/A   Clear
4:35 PM 63.3 °F - 50.9 °F 64% 29.95 in 10.0 mi South 12.7 mph 21.9 mph N/A   Clear
4:55 PM 63.1 °F - 50.9 °F 64% 29.95 in 10.0 mi South 16.1 mph 23.0 mph N/A   Clear
5:15 PM 62.2 °F - 51.1 °F 67% 29.95 in 10.0 mi South 15.0 mph 20.7 mph N/A   Clear
5:35 PM 61.2 °F - 50.9 °F 69% 29.95 in 10.0 mi South 13.8 mph 19.6 mph N/A   Clear
5:55 PM 59.5 °F - 50.7 °F 73% 29.95 in 10.0 mi South 9.2 mph - N/A   Clear
6:15 PM 58.6 °F - 50.9 °F 75% 29.95 in 10.0 mi South 15.0 mph 19.6 mph N/A   Scattered Clouds
6:35 PM 57.4 °F - 50.9 °F 79% 29.96 in 10.0 mi South 16.1 mph 19.6 mph N/A   Scattered Clouds
6:55 PM 56.5 °F - 51.1 °F 82% 29.96 in 10.0 mi South 10.4 mph 17.3 mph N/A   Scattered Clouds
7:15 PM 56.5 °F - 51.6 °F 84% 29.97 in 10.0 mi South 17.3 mph - N/A   Mostly Cloudy
7:35 PM 57.0 °F - 52.0 °F 83% 29.98 in 10.0 mi South 12.7 mph 23.0 mph N/A   Overcast
7:55 PM 57.6 °F - 52.5 °F 83% 29.98 in 10.0 mi South 15.0 mph 18.4 mph N/A   Overcast
8:15 PM 57.6 °F - 52.7 °F 84% 29.98 in 10.0 mi South 13.8 mph - N/A   Overcast
8:55 PM 55.8 °F - 52.3 °F 88% 29.98 in 10.0 mi South 9.2 mph - N/A   Clear
9:15 PM 55.4 °F - 52.5 °F 90% 29.98 in 10.0 mi South 9.2 mph 17.3 mph N/A   Clear
9:55 PM 55.8 °F - 53.1 °F 91% 29.98 in 10.0 mi South 9.2 mph - N/A   Clear
10:15 PM 56.3 °F - 53.6 °F 91% 29.97 in 10.0 mi South 10.4 mph - N/A   Clear
10:35 PM 56.5 °F - 53.8 °F 91% 29.97 in 10.0 mi South 8.1 mph - N/A   Clear
10:55 PM 56.3 °F - 53.8 °F 91% 29.96 in 10.0 mi South 8.1 mph - N/A   Clear
11:15 PM 56.1 °F - 53.6 °F 91% 29.96 in 10.0 mi South 4.6 mph - N/A   Clear
11:35 PM 55.6 °F - 53.6 °F 93% 29.95 in 10.0 mi SSW 3.5 mph - N/A   Clear
11:55 PM 55.0 °F - 53.4 °F 94% 29.95 in 10.0 mi SW 3.5 mph - N/A   Clear